Time,TemperatureF,DewpointF,PressureIn,WindDirection,WindDirectionDegrees,WindSpeedMPH,WindSpeedGustMPH,Humidity,HourlyPrecipIn,Conditions,Clouds,dailyrainin,SoftwareType,DateUTC
2013-02-03 00:00:00,33.9,31.8,30.12,SE,140,2.0,4.0,92,0.00,,,0.06,VWS V14.01,2013-02-03 06:00:00,
2013-02-03 00:01:00,33.9,31.8,30.12,SSW,194,0.0,2.0,92,0.00,,,0.00,VWS V14.01,2013-02-03 06:01:00,
2013-02-03 00:06:00,33.9,31.8,30.12,SSE,163,2.0,4.0,92,0.00,,,0.00,VWS V14.01,2013-02-03 06:06:00,
2013-02-03 00:10:00,34.0,31.9,30.12,SSE,160,2.0,4.0,92,0.00,,,0.00,VWS V14.01,2013-02-03 06:10:00,
2013-02-03 00:11:00,34.0,31.9,30.12,SSW,212,0.0,2.0,92,0.00,,,0.00,VWS V14.01,2013-02-03 06:11:00,
2013-02-03 00:16:00,34.0,31.9,30.12,SSE,166,2.0,4.0,92,0.00,,,0.00,VWS V14.01,2013-02-03 06:16:00,
2013-02-03 00:20:00,34.0,31.9,30.12,SSE,150,1.0,4.0,92,0.00,,,0.00,VWS V14.01,2013-02-03 06:20:00,
2013-02-03 00:21:00,34.0,31.9,30.12,SSW,200,2.0,4.0,92,0.00,,,0.00,VWS V14.01,2013-02-03 06:21:00,
2013-02-03 00:26:00,34.1,31.8,30.11,SSW,198,1.0,5.0,91,0.00,,,0.00,VWS V14.01,2013-02-03 06:26:00,
2013-02-03 00:30:00,34.0,31.6,30.11,SSE,158,1.0,5.0,91,0.00,,,0.00,VWS V14.01,2013-02-03 06:30:00,
2013-02-03 00:31:00,34.1,31.8,30.12,South,188,3.0,4.0,91,0.00,,,0.00,VWS V14.01,2013-02-03 06:31:00,
2013-02-03 00:36:00,34.1,31.8,30.11,SSW,197,1.0,4.0,91,0.00,,,0.00,VWS V14.01,2013-02-03 06:36:00,
2013-02-03 00:40:00,34.1,31.8,30.11,SSW,197,1.0,4.0,91,0.00,,,0.00,VWS V14.01,2013-02-03 06:40:00,
2013-02-03 00:41:00,34.1,31.8,30.11,SW,231,1.0,4.0,91,0.00,,,0.00,VWS V14.01,2013-02-03 06:41:00,
2013-02-03 00:46:00,34.1,31.8,30.11,South,180,1.0,5.0,91,0.00,,,0.00,VWS V14.01,2013-02-03 06:46:00,
2013-02-03 00:50:00,34.2,31.9,30.11,South,181,1.0,5.0,91,0.00,,,0.00,VWS V14.01,2013-02-03 06:50:00,
2013-02-03 00:51:00,34.2,31.9,30.11,WSW,238,0.0,5.0,91,0.00,,,0.00,VWS V14.01,2013-02-03 06:51:00,
2013-02-03 00:56:00,34.2,31.6,30.11,SSW,192,0.0,5.0,90,0.00,,,0.00,VWS V14.01,2013-02-03 06:56:00,
2013-02-03 01:00:00,34.2,31.6,30.11,South,179,2.0,5.0,90,0.00,,,0.00,VWS V14.01,2013-02-03 07:00:00,
2013-02-03 01:01:00,34.2,31.6,30.11,SSW,198,1.0,3.0,90,0.00,,,0.00,VWS V14.01,2013-02-03 07:01:00,
2013-02-03 01:06:00,34.2,31.6,30.11,South,173,3.0,6.0,90,0.00,,,0.00,VWS V14.01,2013-02-03 07:06:00,
2013-02-03 01:10:00,34.3,31.7,30.11,South,169,3.0,6.0,90,0.00,,,0.00,VWS V14.01,2013-02-03 07:10:00,
2013-02-03 01:11:00,34.3,31.7,30.11,SSE,163,3.0,5.0,90,0.00,,,0.00,VWS V14.01,2013-02-03 07:11:00,
2013-02-03 01:16:00,34.3,31.7,30.11,SSE,159,2.0,5.0,90,0.00,,,0.00,VWS V14.01,2013-02-03 07:16:00,
2013-02-03 01:20:00,34.3,31.7,30.11,SSE,156,3.0,5.0,90,0.00,,,0.00,VWS V14.01,2013-02-03 07:20:00,
2013-02-03 01:21:00,34.3,31.7,30.11,SSE,151,1.0,6.0,90,0.00,,,0.00,VWS V14.01,2013-02-03 07:21:00,
2013-02-03 01:26:00,34.3,31.7,30.11,South,169,2.0,6.0,90,0.00,,,0.00,VWS V14.01,2013-02-03 07:26:00,
2013-02-03 01:30:00,34.3,31.7,30.11,SSW,211,3.0,6.0,90,0.00,,,0.00,VWS V14.01,2013-02-03 07:30:00,
2013-02-03 01:31:00,34.4,31.5,30.11,SSW,193,2.0,6.0,89,0.00,,,0.00,VWS V14.01,2013-02-03 07:31:00,
2013-02-03 01:36:00,34.4,31.5,30.11,SSW,197,0.0,6.0,89,0.00,,,0.00,VWS V14.01,2013-02-03 07:36:00,
2013-02-03 01:40:00,34.4,31.5,30.11,SW,224,3.0,6.0,89,0.00,,,0.00,VWS V14.01,2013-02-03 07:40:00,
2013-02-03 01:41:00,34.4,31.5,30.10,SSW,210,3.0,4.0,89,0.00,,,0.00,VWS V14.01,2013-02-03 07:41:00,
2013-02-03 01:46:00,34.4,31.5,30.10,SE,143,2.0,4.0,89,0.00,,,0.00,VWS V14.01,2013-02-03 07:46:00,
2013-02-03 01:50:00,34.4,31.5,30.10,WSW,238,1.0,4.0,89,0.00,,,0.00,VWS V14.01,2013-02-03 07:50:00,
2013-02-03 01:51:00,34.4,31.5,30.10,South,186,2.0,5.0,89,0.00,,,0.00,VWS V14.01,2013-02-03 07:51:00,
2013-02-03 01:56:00,34.4,31.5,30.10,SSE,156,2.0,5.0,89,0.00,,,0.00,VWS V14.01,2013-02-03 07:56:00,
2013-02-03 02:00:00,34.4,31.5,30.10,SE,138,4.0,5.0,89,0.00,,,0.00,VWS V14.01,2013-02-03 08:00:00,
2013-02-03 02:01:00,34.4,31.5,30.10,WSW,249,2.0,5.0,89,0.00,,,0.00,VWS V14.01,2013-02-03 08:01:00,
2013-02-03 02:06:00,34.4,31.5,30.09,SSW,199,2.0,7.0,89,0.00,,,0.00,VWS V14.01,2013-02-03 08:06:00,
2013-02-03 02:10:00,34.5,31.6,30.09,South,190,2.0,7.0,89,0.00,,,0.00,VWS V14.01,2013-02-03 08:10:00,
2013-02-03 02:11:00,34.5,31.6,30.09,South,176,2.0,6.0,89,0.00,,,0.00,VWS V14.01,2013-02-03 08:11:00,
2013-02-03 02:16:00,34.5,31.3,30.09,SSE,166,1.0,6.0,88,0.00,,,0.00,VWS V14.01,2013-02-03 08:16:00,
2013-02-03 02:20:00,34.5,31.3,30.09,SSW,213,6.0,6.0,88,0.00,,,0.00,VWS V14.01,2013-02-03 08:20:00,
2013-02-03 02:21:00,34.5,31.3,30.09,SSW,207,4.0,6.0,88,0.00,,,0.00,VWS V14.01,2013-02-03 08:21:00,
2013-02-03 02:26:00,34.5,31.3,30.09,South,174,2.0,6.0,88,0.00,,,0.00,VWS V14.01,2013-02-03 08:26:00,
2013-02-03 02:30:00,34.5,31.3,30.09,SSE,157,6.0,6.0,88,0.00,,,0.00,VWS V14.01,2013-02-03 08:30:00,
2013-02-03 02:31:00,34.5,31.3,30.08,SSW,194,4.0,7.0,88,0.00,,,0.00,VWS V14.01,2013-02-03 08:31:00,
2013-02-03 02:36:00,34.6,31.4,30.08,South,186,2.0,8.0,88,0.00,,,0.00,VWS V14.01,2013-02-03 08:36:00,
2013-02-03 02:40:00,34.6,31.4,30.08,SW,214,2.0,8.0,88,0.00,,,0.00,VWS V14.01,2013-02-03 08:40:00,
2013-02-03 02:41:00,34.6,31.4,30.07,SSE,159,2.0,6.0,88,0.00,,,0.00,VWS V14.01,2013-02-03 08:41:00,
2013-02-03 02:46:00,34.6,31.4,30.07,SSE,160,4.0,7.0,88,0.00,,,0.00,VWS V14.01,2013-02-03 08:46:00,
2013-02-03 02:50:00,34.6,31.4,30.07,SSE,163,2.0,7.0,88,0.00,,,0.00,VWS V14.01,2013-02-03 08:50:00,
2013-02-03 02:51:00,34.5,31.3,30.07,SSW,194,3.0,5.0,88,0.00,,,0.00,VWS V14.01,2013-02-03 08:51:00,
2013-02-03 02:56:00,34.5,31.3,30.07,SSW,195,3.0,5.0,88,0.00,,,0.00,VWS V14.01,2013-02-03 08:56:00,
2013-02-03 03:00:00,34.5,31.3,30.07,South,190,3.0,5.0,88,0.00,,,0.00,VWS V14.01,2013-02-03 09:00:00,
2013-02-03 03:01:00,34.5,31.3,30.07,SSW,198,3.0,4.0,88,0.00,,,0.00,VWS V14.01,2013-02-03 09:01:00,
2013-02-03 03:06:00,34.5,31.3,30.06,South,184,1.0,5.0,88,0.00,,,0.00,VWS V14.01,2013-02-03 09:06:00,
2013-02-03 03:10:00,34.6,31.4,30.06,SE,131,4.0,5.0,88,0.00,,,0.00,VWS V14.01,2013-02-03 09:10:00,
2013-02-03 03:11:00,34.6,31.4,30.06,SSE,148,1.0,4.0,88,0.00,,,0.00,VWS V14.01,2013-02-03 09:11:00,
2013-02-03 03:16:00,34.6,31.4,30.06,SSW,204,3.0,4.0,88,0.00,,,0.00,VWS V14.01,2013-02-03 09:16:00,
2013-02-03 03:20:00,34.6,31.4,30.06,SW,216,2.0,4.0,88,0.00,,,0.00,VWS V14.01,2013-02-03 09:20:00,
2013-02-03 03:21:00,34.6,31.4,30.06,SW,214,3.0,5.0,88,0.00,,,0.00,VWS V14.01,2013-02-03 09:21:00,
2013-02-03 03:26:00,34.7,31.5,30.06,SSE,153,2.0,5.0,88,0.00,,,0.00,VWS V14.01,2013-02-03 09:26:00,
2013-02-03 03:30:00,34.7,31.5,30.06,SSW,195,3.0,7.0,88,0.00,,,0.00,VWS V14.01,2013-02-03 09:30:00,
2013-02-03 03:31:00,34.7,31.5,30.06,SSE,148,2.0,5.0,88,0.00,,,0.00,VWS V14.01,2013-02-03 09:31:00,
2013-02-03 03:36:00,34.7,31.5,30.05,South,190,2.0,6.0,88,0.00,,,0.00,VWS V14.01,2013-02-03 09:36:00,
2013-02-03 03:40:00,34.7,31.5,30.05,South,191,2.0,6.0,88,0.00,,,0.00,VWS V14.01,2013-02-03 09:40:00,
2013-02-03 03:41:00,34.7,31.5,30.05,South,169,3.0,5.0,88,0.00,,,0.00,VWS V14.01,2013-02-03 09:41:00,
2013-02-03 03:46:00,34.7,31.5,30.05,SSW,198,4.0,6.0,88,0.00,,,0.00,VWS V14.01,2013-02-03 09:46:00,
2013-02-03 03:50:00,34.7,31.5,30.05,SSW,200,4.0,6.0,88,0.00,,,0.00,VWS V14.01,2013-02-03 09:50:00,
2013-02-03 03:51:00,34.7,31.5,30.05,South,187,2.0,6.0,88,0.00,,,0.00,VWS V14.01,2013-02-03 09:51:00,
2013-02-03 03:56:00,34.7,31.5,30.05,South,179,3.0,6.0,88,0.00,,,0.00,VWS V14.01,2013-02-03 09:56:00,
2013-02-03 04:00:00,34.7,31.5,30.05,South,174,6.0,6.0,88,0.00,,,0.00,VWS V14.01,2013-02-03 10:00:00,
2013-02-03 04:01:00,34.7,31.5,30.04,SSE,160,5.0,7.0,88,0.00,,,0.00,VWS V14.01,2013-02-03 10:01:00,
2013-02-03 04:06:00,34.7,31.5,30.04,South,174,2.0,7.0,88,0.00,,,0.00,VWS V14.01,2013-02-03 10:06:00,
2013-02-03 04:10:00,34.7,31.5,30.04,SSE,162,3.0,7.0,88,0.00,,,0.00,VWS V14.01,2013-02-03 10:10:00,
2013-02-03 04:11:00,34.7,31.8,30.03,SSE,161,3.0,9.0,89,0.00,,,0.00,VWS V14.01,2013-02-03 10:11:00,
2013-02-03 04:16:00,34.7,31.8,30.03,SSE,162,3.0,9.0,89,0.00,,,0.00,VWS V14.01,2013-02-03 10:16:00,
2013-02-03 04:20:00,34.7,31.8,30.03,SSW,195,4.0,9.0,89,0.00,,,0.00,VWS V14.01,2013-02-03 10:20:00,
2013-02-03 04:21:00,34.7,31.5,30.03,SSW,212,5.0,6.0,88,0.00,,,0.00,VWS V14.01,2013-02-03 10:21:00,
2013-02-03 04:26:00,34.8,31.6,30.03,South,174,2.0,6.0,88,0.00,,,0.00,VWS V14.01,2013-02-03 10:26:00,
2013-02-03 04:30:00,34.8,31.6,30.03,SW,224,5.0,6.0,88,0.00,,,0.00,VWS V14.01,2013-02-03 10:30:00,
2013-02-03 04:31:00,34.9,31.7,30.03,South,187,4.0,6.0,88,0.00,,,0.00,VWS V14.01,2013-02-03 10:31:00,
2013-02-03 04:36:00,34.9,31.7,30.03,South,175,4.0,7.0,88,0.00,,,0.00,VWS V14.01,2013-02-03 10:36:00,
2013-02-03 04:40:00,34.9,31.7,30.03,SSE,152,1.0,7.0,88,0.00,,,0.00,VWS V14.01,2013-02-03 10:40:00,
2013-02-03 04:41:00,34.8,31.9,30.03,South,179,3.0,4.0,89,0.00,,,0.00,VWS V14.01,2013-02-03 10:41:00,
2013-02-03 04:46:00,34.4,31.8,30.03,SSW,199,2.0,5.0,90,0.00,,,0.00,VWS V14.01,2013-02-03 10:46:00,
2013-02-03 04:50:00,34.4,31.8,30.03,SSW,210,5.0,5.0,90,0.00,,,0.00,VWS V14.01,2013-02-03 10:50:00,
2013-02-03 04:51:00,34.2,31.9,30.05,SSW,211,3.0,6.0,91,0.00,,,0.00,VWS V14.01,2013-02-03 10:51:00,
2013-02-03 04:56:00,34.0,31.9,30.04,SSW,205,1.0,6.0,92,0.00,,,0.00,VWS V14.01,2013-02-03 10:56:00,
2013-02-03 05:00:00,33.9,31.8,30.04,SSW,205,0.0,6.0,92,0.00,,,0.00,VWS V14.01,2013-02-03 11:00:00,
2013-02-03 05:01:00,33.8,31.7,30.05,WSW,239,1.0,2.0,92,0.00,,,0.00,VWS V14.01,2013-02-03 11:01:00,
2013-02-03 05:06:00,33.5,31.7,30.05,West,262,0.0,2.0,93,0.00,,,0.00,VWS V14.01,2013-02-03 11:06:00,
2013-02-03 05:10:00,33.3,31.5,30.05,SSW,200,1.0,1.0,93,0.00,,,0.00,VWS V14.01,2013-02-03 11:10:00,
2013-02-03 05:15:00,33.3,31.8,30.04,SSE,167,0.0,1.0,94,0.00,,,0.00,VWS V14.01,2013-02-03 11:15:00,
2013-02-03 05:20:00,33.1,31.6,30.05,SSE,164,0.0,0.0,94,0.00,,,0.00,VWS V14.01,2013-02-03 11:20:00,
2013-02-03 05:25:00,33.1,31.6,30.04,SSE,160,0.0,0.0,94,0.00,,,0.00,VWS V14.01,2013-02-03 11:25:00,
2013-02-03 05:30:00,33.1,31.8,30.04,SE,146,1.0,2.0,95,0.00,,,0.00,VWS V14.01,2013-02-03 11:30:00,
2013-02-03 05:36:00,33.0,31.7,30.03,SSE,159,1.0,2.0,95,0.00,,,0.00,VWS V14.01,2013-02-03 11:36:00,
2013-02-03 05:40:00,33.0,31.7,30.03,SSW,212,0.0,3.0,95,0.00,,,0.00,VWS V14.01,2013-02-03 11:40:00,
2013-02-03 05:41:00,33.0,31.7,30.03,SSE,162,1.0,2.0,95,0.00,,,0.00,VWS V14.01,2013-02-03 11:41:00,
2013-02-03 05:46:00,33.0,31.7,30.03,SSE,167,1.0,3.0,95,0.00,,,0.00,VWS V14.01,2013-02-03 11:46:00,
2013-02-03 05:50:00,32.9,31.6,30.03,South,176,0.0,1.0,95,0.00,,,0.00,VWS V14.01,2013-02-03 11:50:00,
2013-02-03 05:55:00,32.9,31.6,30.03,SSW,192,0.0,3.0,95,0.00,,,0.00,VWS V14.01,2013-02-03 11:55:00,
2013-02-03 06:00:00,32.9,31.6,30.03,SE,137,1.0,3.0,95,0.00,,,0.00,VWS V14.01,2013-02-03 12:00:00,
2013-02-03 06:05:00,32.9,31.6,30.02,SSE,160,2.0,4.0,95,0.00,,,0.00,VWS V14.01,2013-02-03 12:05:00,
2013-02-03 06:10:00,32.9,31.9,30.02,SSE,153,2.0,3.0,96,0.00,,,0.00,VWS V14.01,2013-02-03 12:10:00,
2013-02-03 06:15:00,33.0,32.0,30.02,SSE,148,1.0,4.0,96,0.00,,,0.00,VWS V14.01,2013-02-03 12:15:00,
2013-02-03 06:20:00,33.0,32.0,30.02,South,175,2.0,4.0,96,0.00,,,0.00,VWS V14.01,2013-02-03 12:20:00,
2013-02-03 06:21:00,33.0,32.0,30.02,South,175,2.0,4.0,96,0.00,,,0.00,VWS V14.01,2013-02-03 12:21:00,
2013-02-03 06:25:00,33.0,32.0,30.01,SE,145,2.0,4.0,96,0.00,,,0.00,VWS V14.01,2013-02-03 12:25:00,
2013-02-03 06:30:00,33.0,32.0,30.02,SSE,164,1.0,3.0,96,0.00,,,0.00,VWS V14.01,2013-02-03 12:30:00,
2013-02-03 06:35:00,33.1,32.1,30.01,SE,137,1.0,4.0,96,0.00,,,0.00,VWS V14.01,2013-02-03 12:35:00,
2013-02-03 06:40:00,33.1,32.1,30.01,SSW,203,3.0,6.0,96,0.00,,,0.00,VWS V14.01,2013-02-03 12:40:00,
2013-02-03 06:45:00,33.1,32.1,30.01,SE,142,5.0,6.0,96,0.00,,,0.00,VWS V14.01,2013-02-03 12:45:00,
2013-02-03 06:50:00,33.1,32.1,30.01,SSE,155,1.0,5.0,96,0.00,,,0.00,VWS V14.01,2013-02-03 12:50:00,
2013-02-03 06:55:00,33.0,32.0,30.01,SSE,162,1.0,5.0,96,0.00,,,0.00,VWS V14.01,2013-02-03 12:55:00,
2013-02-03 07:00:00,33.1,32.1,30.01,SSE,149,2.0,5.0,96,0.00,,,0.00,VWS V14.01,2013-02-03 13:00:00,
2013-02-03 07:01:00,33.1,32.1,30.01,SSE,148,2.0,6.0,96,0.00,,,0.00,VWS V14.01,2013-02-03 13:01:00,
2013-02-03 07:06:00,33.1,32.1,30.00,SSW,201,4.0,6.0,96,0.00,,,0.00,VWS V14.01,2013-02-03 13:06:00,
2013-02-03 07:10:00,33.1,32.1,30.00,SSE,158,4.0,6.0,96,0.00,,,0.00,VWS V14.01,2013-02-03 13:10:00,
2013-02-03 07:11:00,33.2,32.2,30.00,SSW,205,2.0,5.0,96,0.00,,,0.00,VWS V14.01,2013-02-03 13:11:00,
2013-02-03 07:16:00,33.2,32.2,30.01,SSW,193,3.0,5.0,96,0.00,,,0.00,VWS V14.01,2013-02-03 13:16:00,
2013-02-03 07:20:00,33.2,32.2,30.01,SSE,151,2.0,5.0,96,0.00,,,0.00,VWS V14.01,2013-02-03 13:20:00,
2013-02-03 07:21:00,33.3,32.3,30.01,SSE,162,2.0,5.0,96,0.00,,,0.00,VWS V14.01,2013-02-03 13:21:00,
2013-02-03 07:26:00,33.3,32.3,30.01,SSE,167,4.0,7.0,96,0.00,,,0.00,VWS V14.01,2013-02-03 13:26:00,
2013-02-03 07:30:00,33.3,32.3,30.01,South,183,3.0,7.0,96,0.00,,,0.00,VWS V14.01,2013-02-03 13:30:00,
2013-02-03 07:31:00,33.3,32.3,30.01,SSW,201,4.0,6.0,96,0.00,,,0.00,VWS V14.01,2013-02-03 13:31:00,
2013-02-03 07:36:00,33.3,32.3,30.02,SW,228,3.0,6.0,96,0.00,,,0.00,VWS V14.01,2013-02-03 13:36:00,
2013-02-03 07:40:00,33.3,32.3,30.02,South,181,2.0,6.0,96,0.00,,,0.00,VWS V14.01,2013-02-03 13:40:00,
2013-02-03 07:41:00,33.4,32.4,30.02,SSW,200,1.0,4.0,96,0.00,,,0.00,VWS V14.01,2013-02-03 13:41:00,
2013-02-03 07:46:00,33.4,32.4,30.02,South,190,2.0,5.0,96,0.00,,,0.00,VWS V14.01,2013-02-03 13:46:00,
2013-02-03 07:50:00,33.4,32.4,30.02,SSW,200,2.0,5.0,96,0.00,,,0.00,VWS V14.01,2013-02-03 13:50:00,
2013-02-03 07:51:00,33.5,32.5,30.02,South,174,1.0,5.0,96,0.00,,,0.00,VWS V14.01,2013-02-03 13:51:00,
2013-02-03 07:56:00,33.6,32.6,30.02,SE,143,0.0,6.0,96,0.00,,,0.00,VWS V14.01,2013-02-03 13:56:00,
2013-02-03 08:00:00,33.6,32.6,30.02,South,175,0.0,6.0,96,0.00,,,0.00,VWS V14.01,2013-02-03 14:00:00,
2013-02-03 08:01:00,33.7,32.7,30.02,SE,139,7.0,8.0,96,0.00,,,0.00,VWS V14.01,2013-02-03 14:01:00,
2013-02-03 08:06:00,33.9,32.9,30.03,WSW,239,2.0,10.0,96,0.00,,,0.00,VWS V14.01,2013-02-03 14:06:00,
2013-02-03 08:10:00,33.9,32.9,30.03,WSW,240,2.0,10.0,96,0.00,,,0.00,VWS V14.01,2013-02-03 14:10:00,
2013-02-03 08:11:00,34.0,33.0,30.03,SSE,155,2.0,3.0,96,0.00,,,0.00,VWS V14.01,2013-02-03 14:11:00,
2013-02-03 08:16:00,34.1,33.1,30.03,SSE,167,2.0,6.0,96,0.00,,,0.00,VWS V14.01,2013-02-03 14:16:00,
2013-02-03 08:20:00,34.2,33.2,30.03,SSE,158,2.0,6.0,96,0.00,,,0.00,VWS V14.01,2013-02-03 14:20:00,
2013-02-03 08:21:00,34.3,33.3,30.03,SSE,159,3.0,4.0,96,0.00,,,0.00,VWS V14.01,2013-02-03 14:21:00,
2013-02-03 08:26:00,34.4,33.4,30.03,SSW,211,3.0,5.0,96,0.00,,,0.00,VWS V14.01,2013-02-03 14:26:00,
2013-02-03 08:30:00,34.5,33.5,30.03,SSW,197,3.0,5.0,96,0.00,,,0.00,VWS V14.01,2013-02-03 14:30:00,
2013-02-03 08:31:00,34.6,33.6,30.04,SW,218,4.0,8.0,96,0.00,,,0.00,VWS V14.01,2013-02-03 14:31:00,
2013-02-03 08:36:00,34.8,33.8,30.04,SW,221,2.0,8.0,96,0.00,,,0.00,VWS V14.01,2013-02-03 14:36:00,
2013-02-03 08:40:00,34.8,33.8,30.04,SSW,193,1.0,8.0,96,0.00,,,0.00,VWS V14.01,2013-02-03 14:40:00,
2013-02-03 08:41:00,35.1,34.1,30.04,SSW,210,0.0,4.0,96,0.00,,,0.00,VWS V14.01,2013-02-03 14:41:00,
2013-02-03 08:46:00,35.3,34.0,30.03,South,190,1.0,5.0,95,0.00,,,0.00,VWS V14.01,2013-02-03 14:46:00,
2013-02-03 08:50:00,35.4,34.1,30.03,SE,146,2.0,5.0,95,0.00,,,0.00,VWS V14.01,2013-02-03 14:50:00,
2013-02-03 08:51:00,35.6,34.3,30.03,SW,218,4.0,5.0,95,0.00,,,0.00,VWS V14.01,2013-02-03 14:51:00,
2013-02-03 08:56:00,36.1,34.8,30.03,South,190,3.0,6.0,95,0.00,,,0.00,VWS V14.01,2013-02-03 14:56:00,
2013-02-03 09:00:00,36.1,34.8,30.03,SSW,212,5.0,6.0,95,0.00,,,0.00,VWS V14.01,2013-02-03 15:00:00,
2013-02-03 09:01:00,36.5,34.9,30.04,West,280,4.0,8.0,94,0.00,,,0.00,VWS V14.01,2013-02-03 15:01:00,
2013-02-03 09:06:00,36.9,34.8,30.03,SSW,200,2.0,12.0,92,0.00,,,0.00,VWS V14.01,2013-02-03 15:06:00,
2013-02-03 09:10:00,37.0,34.9,30.03,SSE,162,4.0,12.0,92,0.00,,,0.00,VWS V14.01,2013-02-03 15:10:00,
2013-02-03 09:11:00,37.4,35.0,30.04,NW,309,9.0,14.0,91,0.00,,,0.00,VWS V14.01,2013-02-03 15:11:00,
2013-02-03 09:16:00,37.6,34.7,30.04,WSW,252,2.0,14.0,89,0.01,,,0.01,VWS V14.01,2013-02-03 15:16:00,
2013-02-03 09:20:00,37.6,34.9,30.04,WSW,257,10.0,14.0,90,0.01,,,0.01,VWS V14.01,2013-02-03 15:20:00,
2013-02-03 09:21:00,37.7,34.5,30.05,NW,307,5.0,12.0,88,0.02,,,0.02,VWS V14.01,2013-02-03 15:21:00,
2013-02-03 09:26:00,37.8,34.6,30.05,West,270,6.0,14.0,88,0.02,,,0.02,VWS V14.01,2013-02-03 15:26:00,
2013-02-03 09:30:00,37.9,34.7,30.05,West,281,2.0,14.0,88,0.02,,,0.02,VWS V14.01,2013-02-03 15:30:00,
2013-02-03 09:31:00,38.1,34.9,30.05,West,278,9.0,14.0,88,0.03,,,0.03,VWS V14.01,2013-02-03 15:31:00,
2013-02-03 09:36:00,38.0,34.5,30.05,WNW,285,3.0,15.0,87,0.04,,,0.04,VWS V14.01,2013-02-03 15:36:00,
2013-02-03 09:40:00,38.0,34.5,30.05,NW,314,5.0,15.0,87,0.04,,,0.04,VWS V14.01,2013-02-03 15:40:00,
2013-02-03 09:41:00,38.0,34.8,30.05,WSW,252,4.0,11.0,88,0.04,,,0.04,VWS V14.01,2013-02-03 15:41:00,
2013-02-03 09:46:00,38.1,34.3,30.05,North,360,4.0,15.0,86,0.04,,,0.04,VWS V14.01,2013-02-03 15:46:00,
2013-02-03 09:50:00,38.1,34.6,30.05,NW,321,5.0,15.0,87,0.04,,,0.04,VWS V14.01,2013-02-03 15:50:00,
2013-02-03 09:51:00,38.1,34.3,30.06,WNW,294,5.0,16.0,86,0.05,,,0.05,VWS V14.01,2013-02-03 15:51:00,
2013-02-03 09:56:00,38.3,34.8,30.05,WNW,287,7.0,16.0,87,0.05,,,0.05,VWS V14.01,2013-02-03 15:56:00,
2013-02-03 10:00:00,38.3,34.8,30.05,West,265,7.0,16.0,87,0.05,,,0.05,VWS V14.01,2013-02-03 16:00:00,
2013-02-03 10:01:00,38.5,35.0,30.06,West,280,2.0,8.0,87,0.05,,,0.05,VWS V14.01,2013-02-03 16:01:00,
2013-02-03 10:06:00,38.8,34.7,30.06,WNW,297,6.0,16.0,85,0.05,,,0.05,VWS V14.01,2013-02-03 16:06:00,
2013-02-03 10:10:00,38.8,34.4,30.06,NW,307,9.0,16.0,84,0.05,,,0.05,VWS V14.01,2013-02-03 16:10:00,
2013-02-03 10:11:00,38.8,34.7,30.06,West,269,5.0,13.0,85,0.06,,,0.06,VWS V14.01,2013-02-03 16:11:00,
2013-02-03 10:16:00,39.2,35.1,30.06,West,271,6.0,13.0,85,0.06,,,0.06,VWS V14.01,2013-02-03 16:16:00,
2013-02-03 10:20:00,39.2,35.1,30.06,West,259,6.0,13.0,85,0.06,,,0.06,VWS V14.01,2013-02-03 16:20:00,
2013-02-03 10:21:00,39.5,35.1,30.06,West,262,2.0,12.0,84,0.05,,,0.06,VWS V14.01,2013-02-03 16:21:00,
2013-02-03 10:26:00,39.7,34.4,30.06,WNW,298,3.0,13.0,81,0.05,,,0.06,VWS V14.01,2013-02-03 16:26:00,
2013-02-03 10:30:00,39.7,34.7,30.06,WNW,290,2.0,13.0,82,0.05,,,0.06,VWS V14.01,2013-02-03 16:30:00,
2013-02-03 10:31:00,39.6,34.3,30.06,NNW,346,6.0,10.0,81,0.04,,,0.06,VWS V14.01,2013-02-03 16:31:00,
2013-02-03 10:36:00,39.6,34.3,30.06,West,263,8.0,10.0,81,0.04,,,0.06,VWS V14.01,2013-02-03 16:36:00,
2013-02-03 10:40:00,39.5,33.8,30.06,NW,305,7.0,10.0,80,0.04,,,0.06,VWS V14.01,2013-02-03 16:40:00,
2013-02-03 10:41:00,39.5,34.2,30.06,NNW,330,3.0,12.0,81,0.02,,,0.06,VWS V14.01,2013-02-03 16:41:00,
2013-02-03 10:46:00,39.7,34.0,30.06,North,354,8.0,13.0,80,0.02,,,0.06,VWS V14.01,2013-02-03 16:46:00,
2013-02-03 10:50:00,39.8,34.1,30.06,WSW,256,6.0,13.0,80,0.02,,,0.06,VWS V14.01,2013-02-03 16:50:00,
2013-02-03 10:51:00,40.1,34.4,30.06,WNW,290,4.0,9.0,80,0.02,,,0.06,VWS V14.01,2013-02-03 16:51:00,
2013-02-03 10:56:00,40.1,34.1,30.06,WNW,298,9.0,14.0,79,0.02,,,0.06,VWS V14.01,2013-02-03 16:56:00,
2013-02-03 11:00:00,40.0,34.0,30.06,WNW,287,4.0,14.0,79,0.02,,,0.06,VWS V14.01,2013-02-03 17:00:00,
2013-02-03 11:01:00,40.0,33.7,30.06,WNW,288,8.0,13.0,78,0.01,,,0.06,VWS V14.01,2013-02-03 17:01:00,
2013-02-03 11:06:00,40.0,34.3,30.06,WNW,293,13.0,13.0,80,0.01,,,0.06,VWS V14.01,2013-02-03 17:06:00,
2013-02-03 11:10:00,40.0,33.7,30.06,WSW,250,6.0,13.0,78,0.01,,,0.06,VWS V14.01,2013-02-03 17:10:00,
2013-02-03 11:11:00,40.0,34.0,30.07,West,271,3.0,11.0,79,0.01,,,0.06,VWS V14.01,2013-02-03 17:11:00,
2013-02-03 11:16:00,40.3,34.0,30.06,NW,316,1.0,11.0,78,0.01,,,0.06,VWS V14.01,2013-02-03 17:16:00,
2013-02-03 11:20:00,40.4,34.1,30.06,WNW,295,4.0,11.0,78,0.01,,,0.06,VWS V14.01,2013-02-03 17:20:00,
2013-02-03 11:21:00,40.6,33.6,30.06,NW,316,7.0,11.0,76,0.00,,,0.06,VWS V14.01,2013-02-03 17:21:00,
2013-02-03 11:26:00,40.7,33.7,30.06,WSW,257,3.0,11.0,76,0.00,,,0.06,VWS V14.01,2013-02-03 17:26:00,
2013-02-03 11:30:00,40.7,34.1,30.06,West,280,5.0,11.0,77,0.00,,,0.06,VWS V14.01,2013-02-03 17:30:00,
2013-02-03 11:31:00,40.8,33.2,30.06,NW,312,5.0,12.0,74,0.00,,,0.06,VWS V14.01,2013-02-03 17:31:00,
2013-02-03 11:36:00,40.9,33.9,30.06,WNW,282,4.0,12.0,76,0.00,,,0.06,VWS V14.01,2013-02-03 17:36:00,
2013-02-03 11:40:00,40.9,33.3,30.06,WSW,258,13.0,13.0,74,0.00,,,0.06,VWS V14.01,2013-02-03 17:40:00,
2013-02-03 11:41:00,40.9,32.9,30.06,WNW,295,5.0,14.0,73,0.00,,,0.06,VWS V14.01,2013-02-03 17:41:00,
2013-02-03 11:46:00,41.7,34.4,30.06,WSW,239,3.0,16.0,75,0.00,,,0.06,VWS V14.01,2013-02-03 17:46:00,
2013-02-03 11:50:00,41.8,34.1,30.06,West,264,18.0,20.0,74,0.00,,,0.06,VWS V14.01,2013-02-03 17:50:00,
2013-02-03 11:51:00,41.6,32.9,30.06,West,269,14.0,18.0,71,0.00,,,0.06,VWS V14.01,2013-02-03 17:51:00,
2013-02-03 11:56:00,41.9,33.2,30.06,WNW,290,7.0,19.0,71,0.00,,,0.06,VWS V14.01,2013-02-03 17:56:00,
2013-02-03 12:00:00,42.0,33.3,30.06,WNW,283,4.0,19.0,71,0.00,,,0.06,VWS V14.01,2013-02-03 18:00:00,
2013-02-03 12:01:00,41.8,32.8,30.06,West,262,14.0,14.0,70,0.00,,,0.06,VWS V14.01,2013-02-03 18:01:00,
2013-02-03 12:06:00,41.3,32.3,30.06,West,269,6.0,21.0,70,0.00,,,0.06,VWS V14.01,2013-02-03 18:06:00,
2013-02-03 12:10:00,41.3,32.3,30.06,WNW,302,7.0,21.0,70,0.00,,,0.06,VWS V14.01,2013-02-03 18:10:00,
2013-02-03 12:11:00,41.3,32.6,30.06,WNW,302,5.0,17.0,71,0.00,,,0.06,VWS V14.01,2013-02-03 18:11:00,
2013-02-03 12:16:00,41.6,31.8,30.06,West,281,16.0,18.0,68,0.00,,,0.06,VWS V14.01,2013-02-03 18:16:00,
2013-02-03 12:20:00,41.7,31.6,30.06,WNW,293,7.0,18.0,67,0.00,,,0.06,VWS V14.01,2013-02-03 18:20:00,
2013-02-03 12:21:00,42.2,32.8,30.06,WNW,291,7.0,17.0,69,0.00,,,0.06,VWS V14.01,2013-02-03 18:21:00,
2013-02-03 12:26:00,41.7,31.6,30.06,NW,323,14.0,17.0,67,0.00,,,0.06,VWS V14.01,2013-02-03 18:26:00,
2013-02-03 12:30:00,41.6,31.8,30.06,WNW,287,9.0,19.0,68,0.00,,,0.06,VWS V14.01,2013-02-03 18:30:00,
2013-02-03 12:31:00,41.7,31.9,30.06,NW,321,8.0,17.0,68,0.00,,,0.06,VWS V14.01,2013-02-03 18:31:00,
2013-02-03 12:36:00,41.2,31.1,30.07,NW,306,8.0,19.0,67,0.00,,,0.06,VWS V14.01,2013-02-03 18:36:00,
2013-02-03 12:40:00,41.1,31.4,30.07,WNW,288,9.0,19.0,68,0.00,,,0.06,VWS V14.01,2013-02-03 18:40:00,
2013-02-03 12:41:00,40.8,30.7,30.07,NW,326,8.0,15.0,67,0.00,,,0.06,VWS V14.01,2013-02-03 18:41:00,
2013-02-03 12:46:00,40.6,30.9,30.07,NNW,336,4.0,16.0,68,0.00,,,0.06,VWS V14.01,2013-02-03 18:46:00,
2013-02-03 12:50:00,40.6,30.9,30.07,WNW,293,10.0,16.0,68,0.00,,,0.06,VWS V14.01,2013-02-03 18:50:00,
2013-02-03 12:51:00,40.8,30.7,30.07,WNW,297,13.0,17.0,67,0.00,,,0.06,VWS V14.01,2013-02-03 18:51:00,
2013-02-03 12:56:00,40.8,30.3,30.07,WNW,287,13.0,19.0,66,0.00,,,0.06,VWS V14.01,2013-02-03 18:56:00,
2013-02-03 13:00:00,40.8,30.3,30.07,NW,311,12.0,19.0,66,0.00,,,0.06,VWS V14.01,2013-02-03 19:00:00,
2013-02-03 13:01:00,40.6,30.5,30.07,NW,314,5.0,18.0,67,0.00,,,0.06,VWS V14.01,2013-02-03 19:01:00,
2013-02-03 13:06:00,40.1,30.0,30.07,NW,318,5.0,19.0,67,0.00,,,0.06,VWS V14.01,2013-02-03 19:06:00,
2013-02-03 13:10:00,40.2,30.5,30.07,NW,321,9.0,19.0,68,0.00,,,0.06,VWS V14.01,2013-02-03 19:10:00,
2013-02-03 13:11:00,40.3,30.6,30.08,NNW,330,7.0,14.0,68,0.00,,,0.06,VWS V14.01,2013-02-03 19:11:00,
2013-02-03 13:16:00,40.1,30.0,30.08,NW,323,10.0,18.0,67,0.00,,,0.06,VWS V14.01,2013-02-03 19:16:00,
2013-02-03 13:20:00,40.1,30.0,30.08,NW,323,9.0,18.0,67,0.00,,,0.06,VWS V14.01,2013-02-03 19:20:00,
2013-02-03 13:21:00,40.0,29.9,30.08,WNW,294,7.0,12.0,67,0.00,,,0.06,VWS V14.01,2013-02-03 19:21:00,
2013-02-03 13:26:00,39.6,29.2,30.08,NNW,328,7.0,20.0,66,0.00,,,0.06,VWS V14.01,2013-02-03 19:26:00,
2013-02-03 13:30:00,39.6,29.6,30.08,North,4,10.0,20.0,67,0.00,,,0.06,VWS V14.01,2013-02-03 19:30:00,
2013-02-03 13:31:00,39.4,29.4,30.09,NW,305,5.0,16.0,67,0.00,,,0.06,VWS V14.01,2013-02-03 19:31:00,
2013-02-03 13:36:00,39.4,29.7,30.08,NNW,327,6.0,17.0,68,0.00,,,0.06,VWS V14.01,2013-02-03 19:36:00,
2013-02-03 13:40:00,39.5,30.5,30.08,WNW,290,16.0,17.0,70,0.00,,,0.06,VWS V14.01,2013-02-03 19:40:00,
2013-02-03 13:41:00,39.4,29.7,30.09,NNW,328,8.0,16.0,68,0.00,,,0.06,VWS V14.01,2013-02-03 19:41:00,
2013-02-03 13:46:00,39.0,29.7,30.09,NNW,327,5.0,17.0,69,0.00,,,0.06,VWS V14.01,2013-02-03 19:46:00,
2013-02-03 13:50:00,39.0,30.1,30.09,WNW,302,5.0,17.0,70,0.00,,,0.06,VWS V14.01,2013-02-03 19:50:00,
2013-02-03 13:51:00,38.7,29.8,30.09,NW,306,6.0,16.0,70,0.00,,,0.06,VWS V14.01,2013-02-03 19:51:00,
2013-02-03 13:56:00,38.7,30.1,30.09,NNW,330,4.0,16.0,71,0.00,,,0.06,VWS V14.01,2013-02-03 19:56:00,
2013-02-03 14:00:00,38.9,30.3,30.09,NW,319,8.0,16.0,71,0.00,,,0.06,VWS V14.01,2013-02-03 20:00:00,
2013-02-03 14:01:00,39.0,30.1,30.10,NW,319,6.0,16.0,70,0.00,,,0.06,VWS V14.01,2013-02-03 20:01:00,
2013-02-03 14:06:00,38.9,29.6,30.11,WNW,287,8.0,16.0,69,0.00,,,0.06,VWS V14.01,2013-02-03 20:06:00,
2013-02-03 14:10:00,38.8,29.5,30.11,NW,316,7.0,16.0,69,0.00,,,0.06,VWS V14.01,2013-02-03 20:10:00,
2013-02-03 14:11:00,38.3,28.3,30.10,NW,309,6.0,22.0,67,0.00,,,0.06,VWS V14.01,2013-02-03 20:11:00,
2013-02-03 14:16:00,38.2,28.9,30.10,WNW,298,8.0,22.0,69,0.00,,,0.06,VWS V14.01,2013-02-03 20:16:00,
2013-02-03 14:20:00,38.3,29.0,30.10,NW,319,5.0,22.0,69,0.00,,,0.06,VWS V14.01,2013-02-03 20:20:00,
2013-02-03 14:21:00,38.4,28.8,30.10,NNW,336,6.0,15.0,68,0.00,,,0.06,VWS V14.01,2013-02-03 20:21:00,
2013-02-03 14:26:00,38.4,28.4,30.10,NW,319,8.0,16.0,67,0.00,,,0.06,VWS V14.01,2013-02-03 20:26:00,
2013-02-03 14:30:00,38.4,28.4,30.10,NW,313,10.0,11.0,67,0.00,,,0.06,VWS V14.01,2013-02-03 20:30:00,
2013-02-03 14:36:00,38.5,28.5,30.10,WNW,301,5.0,11.0,67,0.00,,,0.06,VWS V14.01,2013-02-03 20:36:00,
2013-02-03 14:40:00,38.2,27.9,30.11,NNW,330,10.0,20.0,66,0.00,,,0.06,VWS V14.01,2013-02-03 20:40:00,
2013-02-03 14:45:00,38.0,28.0,30.11,NW,307,7.0,20.0,67,0.00,,,0.06,VWS V14.01,2013-02-03 20:45:00,
2013-02-03 14:50:00,38.0,28.0,30.11,WNW,294,5.0,20.0,67,0.00,,,0.06,VWS V14.01,2013-02-03 20:50:00,
2013-02-03 14:53:00,37.7,27.8,30.11,WNW,290,6.0,6.0,67,0.00,,,0.06,VWS V14.01,2013-02-03 20:53:00,
2013-02-03 14:58:00,37.6,28.0,30.12,NW,309,6.0,18.0,68,0.00,,,0.06,VWS V14.01,2013-02-03 20:58:00,
2013-02-03 15:00:00,37.6,28.0,30.11,WNW,290,7.0,14.0,68,0.00,,,0.06,VWS V14.01,2013-02-03 21:00:00,
2013-02-03 15:03:00,37.4,27.8,30.12,WNW,295,9.0,21.0,68,0.00,,,0.06,VWS V14.01,2013-02-03 21:03:00,
2013-02-03 15:08:00,37.4,28.2,30.11,NW,317,5.0,10.0,69,0.00,,,0.06,VWS V14.01,2013-02-03 21:08:00,
2013-02-03 15:10:00,37.3,28.1,30.12,NW,306,5.0,21.0,69,0.00,,,0.06,VWS V14.01,2013-02-03 21:10:00,
2013-02-03 15:13:00,37.3,28.1,30.12,WNW,293,7.0,16.0,69,0.00,,,0.06,VWS V14.01,2013-02-03 21:13:00,
2013-02-03 15:18:00,37.2,28.3,30.12,NNE,18,6.0,13.0,70,0.00,,,0.06,VWS V14.01,2013-02-03 21:18:00,
2013-02-03 15:20:00,37.3,28.1,30.12,WNW,297,8.0,16.0,69,0.00,,,0.06,VWS V14.01,2013-02-03 21:20:00,
2013-02-03 15:23:00,37.2,28.0,30.12,NW,321,8.0,16.0,69,0.00,,,0.06,VWS V14.01,2013-02-03 21:23:00,
2013-02-03 15:28:00,37.2,28.0,30.13,NNW,340,7.0,10.0,69,0.00,,,0.06,VWS V14.01,2013-02-03 21:28:00,
2013-02-03 15:30:00,37.2,28.0,30.12,WNW,298,7.0,16.0,69,0.00,,,0.06,VWS V14.01,2013-02-03 21:30:00,
2013-02-03 15:33:00,37.2,28.7,30.13,North,11,5.0,13.0,71,0.00,,,0.06,VWS V14.01,2013-02-03 21:33:00,
2013-02-03 15:38:00,37.2,28.7,30.13,NW,323,1.0,8.0,71,0.00,,,0.06,VWS V14.01,2013-02-03 21:38:00,
2013-02-03 15:40:00,37.3,29.1,30.13,NW,323,8.0,13.0,72,0.00,,,0.06,VWS V14.01,2013-02-03 21:40:00,
2013-02-03 15:43:00,37.1,27.9,30.13,WNW,300,6.0,14.0,69,0.00,,,0.06,VWS V14.01,2013-02-03 21:43:00,
2013-02-03 15:48:00,37.2,28.0,30.13,NW,310,3.0,11.0,69,0.00,,,0.06,VWS V14.01,2013-02-03 21:48:00,
2013-02-03 15:50:00,37.2,28.0,30.13,NW,307,6.0,14.0,69,0.00,,,0.06,VWS V14.01,2013-02-03 21:50:00,
2013-02-03 15:53:00,37.6,28.4,30.12,NNW,330,5.0,11.0,69,0.00,,,0.06,VWS V14.01,2013-02-03 21:53:00,
2013-02-03 15:58:00,37.8,29.3,30.13,NNE,22,9.0,13.0,71,0.00,,,0.06,VWS V14.01,2013-02-03 21:58:00,
2013-02-03 16:00:00,37.7,29.2,30.12,North,349,7.0,11.0,71,0.00,,,0.06,VWS V14.01,2013-02-03 22:00:00,
2013-02-03 16:03:00,37.2,28.3,30.13,NW,319,13.0,14.0,70,0.00,,,0.06,VWS V14.01,2013-02-03 22:03:00,
2013-02-03 16:08:00,36.8,28.6,30.12,NNE,20,8.0,9.0,72,0.00,,,0.06,VWS V14.01,2013-02-03 22:08:00,
2013-02-03 16:10:00,36.9,28.4,30.13,North,360,5.0,14.0,71,0.00,,,0.06,VWS V14.01,2013-02-03 22:10:00,
2013-02-03 16:13:00,36.6,28.1,30.13,NNW,333,6.0,11.0,71,0.00,,,0.06,VWS V14.01,2013-02-03 22:13:00,
2013-02-03 16:18:00,36.5,28.4,30.13,NW,318,2.0,6.0,72,0.00,,,0.06,VWS V14.01,2013-02-03 22:18:00,
2013-02-03 16:20:00,36.5,28.4,30.13,NNW,330,5.0,11.0,72,0.00,,,0.06,VWS V14.01,2013-02-03 22:20:00,
2013-02-03 16:23:00,36.6,28.4,30.13,NW,326,8.0,8.0,72,0.00,,,0.06,VWS V14.01,2013-02-03 22:23:00,
2013-02-03 16:28:00,36.5,27.3,30.13,NW,307,3.0,10.0,69,0.00,,,0.06,VWS V14.01,2013-02-03 22:28:00,
2013-02-03 16:30:00,36.6,27.8,30.13,WNW,301,9.0,13.0,70,0.00,,,0.06,VWS V14.01,2013-02-03 22:30:00,
2013-02-03 16:33:00,36.6,28.1,30.13,NNE,20,3.0,10.0,71,0.00,,,0.06,VWS V14.01,2013-02-03 22:33:00,
2013-02-03 16:38:00,36.4,27.6,30.13,NNW,333,3.0,11.0,70,0.00,,,0.06,VWS V14.01,2013-02-03 22:38:00,
2013-02-03 16:40:00,36.5,28.0,30.13,WNW,300,5.0,10.0,71,0.00,,,0.06,VWS V14.01,2013-02-03 22:40:00,
2013-02-03 16:43:00,36.0,27.9,30.14,North,360,6.0,11.0,72,0.00,,,0.06,VWS V14.01,2013-02-03 22:43:00,
2013-02-03 16:48:00,35.7,27.2,30.14,NW,309,4.0,7.0,71,0.00,,,0.06,VWS V14.01,2013-02-03 22:48:00,
2013-02-03 16:50:00,35.8,27.3,30.13,North,349,7.0,11.0,71,0.00,,,0.06,VWS V14.01,2013-02-03 22:50:00,
2013-02-03 16:53:00,35.5,27.4,30.14,NW,316,3.0,7.0,72,0.00,,,0.06,VWS V14.01,2013-02-03 22:53:00,
2013-02-03 16:58:00,35.3,27.2,30.14,NW,314,4.0,5.0,72,0.00,,,0.06,VWS V14.01,2013-02-03 22:58:00,
2013-02-03 17:00:00,35.3,26.9,30.14,North,359,1.0,7.0,71,0.00,,,0.06,VWS V14.01,2013-02-03 23:00:00,
2013-02-03 17:03:00,35.3,26.9,30.14,NW,310,4.0,10.0,71,0.00,,,0.06,VWS V14.01,2013-02-03 23:03:00,
2013-02-03 17:08:00,35.2,27.1,30.14,NW,321,3.0,6.0,72,0.00,,,0.06,VWS V14.01,2013-02-03 23:08:00,
2013-02-03 17:10:00,35.2,27.1,30.14,North,356,2.0,10.0,72,0.00,,,0.06,VWS V14.01,2013-02-03 23:10:00,
2013-02-03 17:13:00,35.1,27.0,30.14,NW,323,2.0,6.0,72,0.00,,,0.06,VWS V14.01,2013-02-03 23:13:00,
2013-02-03 17:18:00,34.9,27.1,30.14,NW,315,2.0,2.0,73,0.00,,,0.06,VWS V14.01,2013-02-03 23:18:00,
2013-02-03 17:20:00,35.0,27.2,30.14,NW,311,0.0,6.0,73,0.00,,,0.06,VWS V14.01,2013-02-03 23:20:00,
2013-02-03 17:23:00,34.8,26.7,30.15,WNW,300,2.0,4.0,72,0.00,,,0.06,VWS V14.01,2013-02-03 23:23:00,
2013-02-03 17:28:00,34.7,27.0,30.15,NW,308,1.0,1.0,73,0.00,,,0.06,VWS V14.01,2013-02-03 23:28:00,
2013-02-03 17:30:00,34.7,26.9,30.14,NW,307,1.0,4.0,73,0.00,,,0.06,VWS V14.01,2013-02-03 23:30:00,
2013-02-03 17:33:00,34.4,26.7,30.15,NNW,338,1.0,3.0,73,0.00,,,0.06,VWS V14.01,2013-02-03 23:33:00,
2013-02-03 17:38:00,34.2,26.8,30.15,WNW,297,1.0,2.0,74,0.00,,,0.06,VWS V14.01,2013-02-03 23:38:00,
2013-02-03 17:40:00,34.3,26.9,30.15,NNW,330,2.0,3.0,74,0.00,,,0.06,VWS V14.01,2013-02-03 23:40:00,
2013-02-03 17:43:00,33.9,26.5,30.15,WNW,297,1.0,2.0,74,0.00,,,0.06,VWS V14.01,2013-02-03 23:43:00,
2013-02-03 17:48:00,33.7,26.6,30.15,NW,311,1.0,3.0,75,0.00,,,0.06,VWS V14.01,2013-02-03 23:48:00,
2013-02-03 17:50:00,33.7,26.6,30.15,NNW,328,1.0,4.0,75,0.00,,,0.06,VWS V14.01,2013-02-03 23:50:00,
2013-02-03 17:53:00,33.4,26.3,30.15,NW,316,0.0,3.0,75,0.00,,,0.06,VWS V14.01,2013-02-03 23:53:00,
2013-02-03 17:58:00,33.1,26.4,30.15,NW,316,0.0,0.0,76,0.00,,,0.06,VWS V14.01,2013-02-03 23:58:00,
2013-02-03 18:00:00,33.2,26.5,30.15,NW,316,0.0,3.0,76,0.00,,,0.06,VWS V14.01,2013-02-04 00:00:00,
2013-02-03 18:03:00,32.6,26.2,30.15,NW,316,0.0,0.0,77,0.00,,,0.06,VWS V14.01,2013-02-04 00:03:00,
2013-02-03 18:08:00,32.0,25.9,30.15,NW,316,0.0,0.0,78,0.00,,,0.06,VWS V14.01,2013-02-04 00:08:00,
2013-02-03 18:10:00,32.1,26.0,30.15,NW,316,0.0,0.0,78,0.00,,,0.06,VWS V14.01,2013-02-04 00:10:00,
2013-02-03 18:13:00,31.4,25.6,30.15,NW,316,0.0,0.0,79,0.00,,,0.06,VWS V14.01,2013-02-04 00:13:00,
2013-02-03 18:18:00,30.8,25.4,30.15,NW,316,0.0,0.0,80,0.00,,,0.06,VWS V14.01,2013-02-04 00:18:00,
2013-02-03 18:20:00,30.9,25.5,30.15,NW,316,0.0,0.0,80,0.00,,,0.06,VWS V14.01,2013-02-04 00:20:00,
2013-02-03 18:23:00,30.2,25.1,30.16,NW,316,0.0,0.0,81,0.00,,,0.06,VWS V14.01,2013-02-04 00:23:00,
2013-02-03 18:28:00,29.7,25.2,30.16,NW,316,0.0,0.0,83,0.00,,,0.06,VWS V14.01,2013-02-04 00:28:00,
2013-02-03 18:30:00,29.9,25.1,30.16,NW,316,0.0,0.0,82,0.00,,,0.06,VWS V14.01,2013-02-04 00:30:00,
2013-02-03 18:33:00,29.7,25.5,30.16,NW,316,0.0,0.0,84,0.00,,,0.06,VWS V14.01,2013-02-04 00:33:00,
2013-02-03 18:38:00,29.7,25.8,30.16,NW,316,0.0,0.0,85,0.00,,,0.06,VWS V14.01,2013-02-04 00:38:00,
2013-02-03 18:40:00,29.7,25.8,30.16,NW,316,0.0,0.0,85,0.00,,,0.06,VWS V14.01,2013-02-04 00:40:00,
2013-02-03 18:43:00,29.8,25.9,30.16,NW,316,0.0,0.0,85,0.00,,,0.06,VWS V14.01,2013-02-04 00:43:00,
2013-02-03 18:48:00,29.6,25.6,30.16,NW,316,0.0,0.0,85,0.00,,,0.06,VWS V14.01,2013-02-04 00:48:00,
2013-02-03 18:50:00,29.7,25.8,30.16,NW,316,0.0,0.0,85,0.00,,,0.06,VWS V14.01,2013-02-04 00:50:00,
2013-02-03 18:53:00,29.3,25.4,30.16,NW,316,0.0,0.0,85,0.00,,,0.06,VWS V14.01,2013-02-04 00:53:00,
2013-02-03 18:58:00,29.2,25.5,30.16,NW,316,0.0,0.0,86,0.00,,,0.06,VWS V14.01,2013-02-04 00:58:00,
2013-02-03 19:00:00,29.2,25.5,30.16,NW,316,0.0,0.0,86,0.00,,,0.06,VWS V14.01,2013-02-04 01:00:00,
2013-02-03 19:03:00,28.9,25.5,30.16,NW,316,0.0,0.0,87,0.00,,,0.06,VWS V14.01,2013-02-04 01:03:00,
2013-02-03 19:08:00,28.4,25.0,30.16,NW,316,0.0,0.0,87,0.00,,,0.06,VWS V14.01,2013-02-04 01:08:00,
2013-02-03 19:10:00,28.6,25.2,30.16,NW,316,0.0,0.0,87,0.00,,,0.06,VWS V14.01,2013-02-04 01:10:00,
2013-02-03 19:13:00,28.4,25.3,30.16,NW,316,0.0,0.0,88,0.00,,,0.06,VWS V14.01,2013-02-04 01:13:00,
2013-02-03 19:18:00,28.3,25.5,30.16,NW,316,0.0,0.0,89,0.00,,,0.06,VWS V14.01,2013-02-04 01:18:00,
2013-02-03 19:20:00,28.4,25.6,30.16,NW,316,0.0,0.0,89,0.00,,,0.06,VWS V14.01,2013-02-04 01:20:00,
2013-02-03 19:23:00,28.2,25.4,30.17,NW,316,0.0,0.0,89,0.00,,,0.06,VWS V14.01,2013-02-04 01:23:00,
2013-02-03 19:28:00,28.0,25.2,30.17,NW,316,0.0,0.0,89,0.00,,,0.06,VWS V14.01,2013-02-04 01:28:00,
2013-02-03 19:30:00,28.1,25.3,30.17,NW,316,0.0,0.0,89,0.00,,,0.06,VWS V14.01,2013-02-04 01:30:00,
2013-02-03 19:33:00,28.0,25.5,30.17,NW,316,0.0,0.0,90,0.00,,,0.06,VWS V14.01,2013-02-04 01:33:00,
2013-02-03 19:38:00,27.7,24.9,30.17,NW,316,0.0,0.0,89,0.00,,,0.06,VWS V14.01,2013-02-04 01:38:00,
2013-02-03 19:40:00,27.8,25.2,30.17,NW,316,0.0,0.0,90,0.00,,,0.06,VWS V14.01,2013-02-04 01:40:00,
2013-02-03 19:43:00,27.3,24.8,30.17,NW,316,0.0,0.0,90,0.00,,,0.06,VWS V14.01,2013-02-04 01:43:00,
2013-02-03 19:48:00,27.5,25.2,30.16,NW,316,0.0,0.0,91,0.00,,,0.06,VWS V14.01,2013-02-04 01:48:00,
2013-02-03 19:50:00,27.5,25.2,30.17,NW,316,0.0,0.0,91,0.00,,,0.06,VWS V14.01,2013-02-04 01:50:00,
2013-02-03 19:53:00,27.3,24.8,30.17,NW,316,0.0,0.0,90,0.00,,,0.06,VWS V14.01,2013-02-04 01:53:00,
2013-02-03 19:58:00,26.9,24.6,30.17,NW,316,0.0,0.0,91,0.00,,,0.06,VWS V14.01,2013-02-04 01:58:00,
2013-02-03 20:00:00,27.0,24.5,30.17,NW,316,0.0,0.0,90,0.00,,,0.06,VWS V14.01,2013-02-04 02:00:00,
2013-02-03 20:03:00,26.9,24.6,30.16,NW,316,0.0,0.0,91,0.00,,,0.06,VWS V14.01,2013-02-04 02:03:00,
2013-02-03 20:08:00,27.2,25.2,30.16,NW,316,0.0,0.0,92,0.00,,,0.06,VWS V14.01,2013-02-04 02:08:00,
2013-02-03 20:10:00,27.1,25.1,30.16,NW,316,0.0,0.0,92,0.00,,,0.06,VWS V14.01,2013-02-04 02:10:00,
2013-02-03 20:13:00,27.1,25.1,30.16,NW,316,0.0,0.0,92,0.00,,,0.06,VWS V14.01,2013-02-04 02:13:00,
2013-02-03 20:18:00,27.4,25.6,30.16,NW,316,0.0,0.0,93,0.00,,,0.06,VWS V14.01,2013-02-04 02:18:00,
2013-02-03 20:20:00,27.3,25.5,30.16,NW,316,0.0,0.0,93,0.00,,,0.06,VWS V14.01,2013-02-04 02:20:00,
2013-02-03 20:23:00,27.4,25.4,30.17,NW,316,0.0,0.0,92,0.00,,,0.06,VWS V14.01,2013-02-04 02:23:00,
2013-02-03 20:28:00,27.3,25.3,30.17,NW,316,0.0,0.0,92,0.00,,,0.06,VWS V14.01,2013-02-04 02:28:00,
2013-02-03 20:30:00,27.4,25.4,30.17,NW,316,0.0,0.0,92,0.00,,,0.06,VWS V14.01,2013-02-04 02:30:00,
2013-02-03 20:33:00,27.2,25.2,30.17,NW,316,0.0,0.0,92,0.00,,,0.06,VWS V14.01,2013-02-04 02:33:00,
2013-02-03 20:38:00,27.0,25.0,30.17,NW,316,0.0,0.0,92,0.00,,,0.06,VWS V14.01,2013-02-04 02:38:00,
2013-02-03 20:43:00,26.8,24.8,30.17,NW,316,0.0,0.0,92,0.00,,,0.06,VWS V14.01,2013-02-04 02:43:00,
2013-02-03 20:48:00,26.8,25.0,30.17,NW,316,0.0,0.0,93,0.00,,,0.06,VWS V14.01,2013-02-04 02:48:00,
2013-02-03 20:50:00,26.8,24.8,30.17,NW,316,0.0,0.0,92,0.00,,,0.06,VWS V14.01,2013-02-04 02:50:00,
2013-02-03 20:53:00,26.9,25.1,30.18,NW,316,0.0,0.0,93,0.00,,,0.06,VWS V14.01,2013-02-04 02:53:00,
2013-02-03 20:58:00,26.8,24.8,30.18,NW,316,0.0,0.0,92,0.00,,,0.06,VWS V14.01,2013-02-04 02:58:00,
2013-02-03 21:00:00,26.8,24.8,30.18,NW,316,0.0,0.0,92,0.00,,,0.06,VWS V14.01,2013-02-04 03:00:00,
2013-02-03 21:03:00,26.8,25.0,30.17,NW,318,0.0,0.0,93,0.00,,,0.06,VWS V14.01,2013-02-04 03:03:00,
2013-02-03 21:08:00,27.0,25.2,30.18,NNE,25,0.0,2.0,93,0.00,,,0.06,VWS V14.01,2013-02-04 03:08:00,
2013-02-03 21:10:00,26.9,25.1,30.18,NNE,18,0.0,0.0,93,0.00,,,0.06,VWS V14.01,2013-02-04 03:10:00,
2013-02-03 21:13:00,27.2,25.5,30.18,NNE,25,0.0,2.0,93,0.00,,,0.06,VWS V14.01,2013-02-04 03:13:00,
2013-02-03 21:18:00,27.4,25.4,30.17,NNE,25,0.0,0.0,92,0.00,,,0.06,VWS V14.01,2013-02-04 03:18:00,
2013-02-03 21:20:00,27.3,25.5,30.18,NNE,25,0.0,2.0,93,0.00,,,0.06,VWS V14.01,2013-02-04 03:20:00,
2013-02-03 21:23:00,27.3,25.3,30.18,NNE,25,0.0,0.0,92,0.00,,,0.06,VWS V14.01,2013-02-04 03:23:00,
2013-02-03 21:28:00,27.3,25.3,30.18,NNE,25,0.0,0.0,92,0.00,,,0.06,VWS V14.01,2013-02-04 03:28:00,
2013-02-03 21:33:00,27.4,25.4,30.18,NNE,25,0.0,0.0,92,0.00,,,0.06,VWS V14.01,2013-02-04 03:33:00,
2013-02-03 21:38:00,27.4,25.1,30.18,NNE,25,0.0,0.0,91,0.00,,,0.06,VWS V14.01,2013-02-04 03:38:00,
2013-02-03 21:40:00,27.4,25.1,30.18,NNE,25,0.0,0.0,91,0.00,,,0.06,VWS V14.01,2013-02-04 03:40:00,
2013-02-03 21:43:00,27.3,25.0,30.17,NNE,25,0.0,0.0,91,0.00,,,0.06,VWS V14.01,2013-02-04 03:43:00,
2013-02-03 21:48:00,26.9,24.4,30.17,NNE,25,0.0,0.0,90,0.00,,,0.06,VWS V14.01,2013-02-04 03:48:00,
2013-02-03 21:50:00,27.0,24.5,30.17,NNE,25,0.0,0.0,90,0.00,,,0.06,VWS V14.01,2013-02-04 03:50:00,
2013-02-03 21:53:00,26.6,24.3,30.17,NNE,25,0.0,0.0,91,0.00,,,0.06,VWS V14.01,2013-02-04 03:53:00,
2013-02-03 21:58:00,26.5,24.2,30.17,NNE,25,0.0,0.0,91,0.00,,,0.06,VWS V14.01,2013-02-04 03:58:00,
2013-02-03 22:00:00,26.6,24.3,30.17,NNE,25,0.0,0.0,91,0.00,,,0.06,VWS V14.01,2013-02-04 04:00:00,
2013-02-03 22:03:00,26.3,24.0,30.18,NNE,25,0.0,0.0,91,0.00,,,0.06,VWS V14.01,2013-02-04 04:03:00,
2013-02-03 22:08:00,26.2,24.2,30.17,NNE,25,0.0,0.0,92,0.00,,,0.06,VWS V14.01,2013-02-04 04:08:00,
2013-02-03 22:10:00,26.2,24.2,30.18,NNE,25,0.0,0.0,92,0.00,,,0.06,VWS V14.01,2013-02-04 04:10:00,
2013-02-03 22:13:00,26.4,24.4,30.17,NNE,25,0.0,0.0,92,0.00,,,0.06,VWS V14.01,2013-02-04 04:13:00,
2013-02-03 22:18:00,26.2,24.2,30.17,NNE,25,0.0,0.0,92,0.00,,,0.06,VWS V14.01,2013-02-04 04:18:00,
2013-02-03 22:20:00,26.3,24.3,30.17,NNE,25,0.0,0.0,92,0.00,,,0.06,VWS V14.01,2013-02-04 04:20:00,
2013-02-03 22:23:00,26.0,24.0,30.17,NNE,25,0.0,0.0,92,0.00,,,0.06,VWS V14.01,2013-02-04 04:23:00,
2013-02-03 22:28:00,26.0,24.0,30.17,NNE,25,0.0,0.0,92,0.00,,,0.06,VWS V14.01,2013-02-04 04:28:00,
2013-02-03 22:30:00,26.0,24.0,30.17,NNE,25,0.0,0.0,92,0.00,,,0.06,VWS V14.01,2013-02-04 04:30:00,
2013-02-03 22:33:00,26.0,24.3,30.17,NNE,25,0.0,0.0,93,0.00,,,0.06,VWS V14.01,2013-02-04 04:33:00,
2013-02-03 22:38:00,26.2,24.5,30.17,NNE,25,0.0,0.0,93,0.00,,,0.06,VWS V14.01,2013-02-04 04:38:00,
2013-02-03 22:40:00,26.1,24.4,30.17,NNE,26,0.0,0.0,93,0.00,,,0.06,VWS V14.01,2013-02-04 04:40:00,
2013-02-03 22:43:00,26.1,24.4,30.16,NNE,25,0.0,0.0,93,0.00,,,0.06,VWS V14.01,2013-02-04 04:43:00,
2013-02-03 22:48:00,26.0,24.0,30.16,NNE,25,0.0,0.0,92,0.00,,,0.06,VWS V14.01,2013-02-04 04:48:00,
2013-02-03 22:50:00,26.1,24.1,30.16,NNE,25,0.0,0.0,92,0.00,,,0.06,VWS V14.01,2013-02-04 04:50:00,
2013-02-03 22:53:00,25.9,24.2,30.16,NNE,25,0.0,0.0,93,0.00,,,0.06,VWS V14.01,2013-02-04 04:53:00,
2013-02-03 22:58:00,25.8,24.1,30.16,NNE,25,0.0,0.0,93,0.00,,,0.06,VWS V14.01,2013-02-04 04:58:00,
2013-02-03 23:00:00,25.7,24.0,30.16,NNE,26,0.0,0.0,93,0.00,,,0.06,VWS V14.01,2013-02-04 05:00:00,
2013-02-03 23:02:00,25.5,23.8,30.16,NNE,25,0.0,0.0,93,0.00,,,0.06,VWS V14.01,2013-02-04 05:02:00,
2013-02-03 23:03:00,25.4,23.7,30.16,NNE,26,0.0,0.0,93,0.00,,,0.06,VWS V14.01,2013-02-04 05:03:00,
2013-02-03 23:08:00,24.9,23.2,30.16,NNE,25,0.0,0.0,93,0.00,,,0.06,VWS V14.01,2013-02-04 05:08:00,
2013-02-03 23:10:00,25.0,23.3,30.16,NNE,25,0.0,0.0,93,0.00,,,0.06,VWS V14.01,2013-02-04 05:10:00,
2013-02-03 23:13:00,24.6,22.9,30.16,NNE,25,0.0,0.0,93,0.00,,,0.06,VWS V14.01,2013-02-04 05:13:00,
2013-02-03 23:18:00,24.6,23.1,30.15,NNE,25,0.0,0.0,94,0.00,,,0.06,VWS V14.01,2013-02-04 05:18:00,
2013-02-03 23:20:00,24.6,23.1,30.15,NNE,25,0.0,0.0,94,0.00,,,0.06,VWS V14.01,2013-02-04 05:20:00,
2013-02-03 23:23:00,24.8,23.3,30.15,NNE,26,0.0,0.0,94,0.00,,,0.06,VWS V14.01,2013-02-04 05:23:00,
2013-02-03 23:28:00,24.8,23.3,30.15,SE,132,0.0,0.0,94,0.00,,,0.06,VWS V14.01,2013-02-04 05:28:00,
2013-02-03 23:30:00,24.8,23.3,30.15,SE,133,0.0,0.0,94,0.00,,,0.06,VWS V14.01,2013-02-04 05:30:00,
2013-02-03 23:33:00,24.8,23.3,30.14,SE,132,0.0,0.0,94,0.00,,,0.06,VWS V14.01,2013-02-04 05:33:00,
2013-02-03 23:38:00,24.9,23.4,30.14,SE,133,0.0,0.0,94,0.00,,,0.06,VWS V14.01,2013-02-04 05:38:00,
2013-02-03 23:40:00,25.0,23.5,30.14,SE,132,0.0,0.0,94,0.00,,,0.06,VWS V14.01,2013-02-04 05:40:00,
2013-02-03 23:43:00,24.8,23.3,30.14,SE,132,0.0,0.0,94,0.00,,,0.06,VWS V14.01,2013-02-04 05:43:00,
2013-02-03 23:48:00,24.8,23.3,30.14,SE,132,0.0,0.0,94,0.00,,,0.06,VWS V14.01,2013-02-04 05:48:00,
2013-02-03 23:50:00,24.8,23.3,30.14,SE,132,0.0,0.0,94,0.00,,,0.06,VWS V14.01,2013-02-04 05:50:00,
2013-02-03 23:53:00,24.8,23.3,30.14,SE,133,0.0,0.0,94,0.00,,,0.06,VWS V14.01,2013-02-04 05:53:00,
2013-02-03 23:58:00,24.5,23.0,30.14,SE,132,0.0,0.0,94,0.00,,,0.00,VWS V14.01,2013-02-04 05:58:00,